Theta_e
358 357 360 359 363 361 360 359 358 360 360 359 356 360 363 362 363 364 363 364 357 352 354 349 356 352 347 350 348 354 353 353 354 354 355 357 359 360 361 361 361 360 360 359 359 358 358 358 358 359 358 358 358 357 357 356 355 356 356 356 356 355 355 356 356 356 357 357 358 357 356 356 356 355 354 354 354 353 353 352 351 350 348 346 346
358 362 358 358 360 360 361 359 359 359 356 359 357 360 360 362 363 361 355 363 355 362 365 349 346 349 353 349 349 346 356 353 354 355 356 356 357 359 362 361 360 360 360 359 359 358 358 357 357 356 356 357 357 357 357 357 356 356 356 356 355 355 355 356 356 356 356 357 357 357 357 356 356 356 355 354 354 354 353 353 352 350 350 350 347
359 360 360 358 357 362 364 362 357 356 357 356 362 363 365 365 364 367 364 366 362 356 366 357 355 350 351 347 348 352 350 352 350 354 353 354 356 358 360 361 361 360 360 359 359 359 358 358 358 357 357 356 357 357 356 357 357 356 356 356 356 355 355 356 356 357 358 357 357 357 357 356 356 356 356 355 354 354 354 353 352 350 350 351 351
360 358 358 358 358 359 359 362 361 361 359 360 364 364 371 362 370 370 372 370 361 361 371 354 358 349 354 348 350 351 353 351 347 349 353 356 356 357 358 358 361 360 360 359 359 358 358 359 358 358 357 357 357 356 356 357 356 356 356 357 357 357 357 356 357 357 358 358 358 358 358 357 357 357 358 357 355 355 354 353 353 352 350 351 351
369 363 360 360 358 357 357 361 365 368 363 364 364 371 371 368 366 371 367 368 361 363 365 355 355 352 350 349 355 354 362 358 348 347 351 357 358 357 357 359 359 361 361 359 360 360 359 360 359 358 358 357 357 356 356 357 356 356 356 357 357 358 358 358 358 359 359 359 359 358 357 357 357 358 357 358 357 356 355 354 353 353 352 352 352
370 367 367 362 362 362 361 365 372 367 369 368 366 366 366 364 364 367 364 368 358 362 360 357 360 357 355 351 355 362 357 353 356 348 350 352 357 359 359 359 359 359 360 361 360 360 360 360 358 359 359 359 358 358 357 357 358 357 357 357 357 358 358 359 359 359 359 360 359 358 358 358 357 358 358 357 356 356 355 354 354 353 352 352 352
372 372 366 366 358 360 362 365 367 368 366 367 367 367 365 363 363 363 359 365 357 360 360 355 361 358 365 359 355 368 360 353 351 359 353 355 355 354 360 360 360 359 360 359 361 362 362 362 361 360 359 360 359 360 359 359 359 359 358 359 358 358 359 359 359 359 360 360 360 360 359 358 358 358 358 357 357 356 356 355 354 355 354 352 353
371 373 368 364 361 360 364 368 367 369 367 371 367 366 370 366 366 362 361 356 363 361 369 361 362 353 359 360 355 359 359 360 361 351 351 359 358 359 358 360 361 362 362 358 358 361 363 363 362 361 361 361 361 361 361 361 360 360 360 360 360 360 359 360 360 360 360 360 360 360 359 359 359 359 358 357 357 357 357 357 356 356 355 355 353
373 372 372 367 363 364 361 365 369 371 369 371 366 366 367 357 369 370 369 369 359 350 360 363 360 354 359 352 355 365 361 356 359 359 355 361 359 354 355 359 364 364 364 363 361 360 363 364 363 363 362 362 362 362 362 362 362 361 361 361 361 362 361 360 360 360 360 361 360 360 359 360 360 360 360 359 359 359 358 357 357 356 356 355 356
371 371 373 365 364 365 364 368 369 370 368 367 368 363 362 364 369 369 368 369 362 356 352 353 350 352 358 351 366 360 357 363 360 369 360 360 358 356 355 354 356 354 355 359 362 364 360 363 365 364 364 363 363 363 362 362 362 362 362 362 362 361 361 363 361 361 361 361 361 362 361 361 361 361 361 360 360 360 359 359 359 358 358 358 357
370 370 371 367 364 364 367 368 367 371 365 362 362 363 361 363 364 367 370 367 364 361 361 363 354 348 347 349 357 360 369 359 364 360 356 351 350 353 349 355 355 357 357 361 360 362 360 359 361 362 362 365 365 364 363 364 363 363 363 363 363 363 363 363 363 363 363 363 362 362 362 362 362 362 362 361 361 362 362 361 360 360 360 359 359
370 370 373 371 367 366 366 364 366 365 364 360 359 363 363 361 364 364 364 365 368 358 358 361 362 354 362 362 360 357 365 360 358 357 362 352 353 354 348 349 352 351 353 351 353 357 361 363 364 363 363 364 366 366 367 366 366 365 365 365 365 365 364 364 365 364 364 364 364 363 363 364 364 363 362 363 363 363 362 362 362 361 361 361 361
370 369 369 370 370 372 369 366 369 365 363 365 362 361 365 367 370 367 359 362 359 360 359 358 365 358 372 357 359 363 359 358 352 349 347 348 349 352 362 349 350 352 361 357 361 356 361 364 364 365 363 365 364 369 368 367 367 366 366 366 366 366 366 365 365 365 365 365 365 365 364 365 364 364 364 364 363 363 362 362 362 362 362 362 361
371 370 370 367 368 368 366 363 372 365 364 364 363 367 367 365 363 369 366 361 359 356 357 358 358 354 350 351 355 362 367 353 347 344 344 344 346 351 349 347 346 347 351 356 363 356 354 358 362 365 366 367 362 361 364 368 368 367 368 367 368 367 367 366 367 366 367 367 367 365 365 365 365 365 365 364 363 364 363 362 362 362 362 362 362
371 369 369 366 369 369 365 366 365 368 368 367 366 367 370 365 366 362 361 367 362 365 364 359 353 353 357 360 350 347 351 349 347 344 341 342 341 343 349 342 339 346 353 352 351 353 354 356 364 366 367 372 367 365 366 366 364 369 368 365 366 367 367 367 367 368 367 368 368 367 367 366 366 366 366 365 365 364 364 363 363 362 362 362 361
366 366 367 371 371 368 366 365 370 369 368 366 366 362 366 370 366 362 363 357 353 361 360 363 362 359 352 355 349 347 343 341 356 357 345 345 342 340 347 343 344 349 366 355 349 361 356 356 354 364 367 365 372 372 368 368 370 375 374 370 365 364 366 367 367 367 368 368 368 367 367 367 367 367 366 366 366 366 364 364 363 363 362 362 362
364 366 367 369 371 371 370 369 371 368 367 367 366 363 362 364 366 366 364 359 351 355 363 356 360 366 366 353 346 344 342 345 345 358 346 343 342 335 343 345 342 351 355 351 349 358 345 356 359 364 363 371 368 369 366 370 373 377 375 375 370 364 363 366 367 367 366 366 367 367 367 366 366 366 366 366 365 365 365 364 363 363 362 362 362
366 369 366 368 370 370 369 368 367 370 369 367 367 364 362 366 364 363 361 363 367 357 356 364 357 364 365 363 355 348 351 348 346 347 356 347 345 345 341 343 340 344 349 347 347 351 360 353 360 361 360 363 368 362 368 372 372 373 375 370 371 367 366 364 367 365 365 366 366 366 366 366 366 366 366 365 365 364 365 363 362 362 362 362 362
362 367 368 368 370 370 370 371 370 369 369 368 366 359 358 362 365 364 365 368 367 362 356 355 364 366 355 352 354 358 353 355 348 349 344 354 353 343 340 351 341 343 345 343 345 348 358 352 354 353 363 364 363 368 362 364 365 372 375 376 370 370 369 367 368 368 366 364 364 364 364 364 365 365 365 365 365 364 364 364 363 363 363 363 363
364 370 370 369 370 371 372 370 370 370 367 371 364 361 369 368 370 369 376 373 370 360 360 358 359 359 360 355 359 353 351 351 355 351 355 345 351 348 354 346 349 346 353 346 344 346 352 353 352 345 358 358 365 361 368 367 365 359 364 368 371 373 370 367 368 367 365 363 363 363 363 363 364 364 363 364 364 364 364 364 364 364 364 364 364
368 367 371 370 371 371 372 372 370 368 368 371 363 363 364 367 369 368 372 371 373 368 367 366 359 356 362 364 361 360 353 355 349 350 355 347 342 348 342 340 351 344 350 347 348 347 348 357 360 354 357 359 369 364 364 370 373 381 370 366 370 370 368 365 363 363 362 362 362 362 363 363 362 363 363 363 363 363 363 363 362 362 363 363 363
368 368 372 371 369 373 368 365 366 364 363 368 366 367 369 370 365 365 368 367 378 373 368 371 364 362 361 371 366 367 358 353 349 348 354 352 342 339 346 340 351 353 358 343 342 355 352 358 354 353 353 359 367 366 371 370 382 363 361 366 369 368 366 362 360 360 361 361 362 361 362 362 362 362 362 362 362 362 362 362 361 362 363 362 361
363 368 368 369 368 370 365 365 364 370 370 368 369 361 361 363 362 366 368 370 366 365 364 367 367 371 358 371 365 358 358 356 360 352 349 349 350 341 339 339 337 344 355 359 360 342 352 346 355 348 371 363 363 368 372 368 359 357 359 359 359 363 363 361 361 361 358 358 360 360 360 360 360 360 361 361 361 361 361 361 362 362 361 360 359
365 365 363 363 369 369 369 368 368 365 366 370 368 361 361 365 370 375 373 371 371 368 366 363 360 369 363 357 359 355 355 353 351 354 354 355 349 344 347 356 350 347 350 353 344 345 345 344 352 351 361 361 364 380 376 376 363 359 360 359 359 362 362 364 362 361 359 357 355 355 356 356 358 359 360 360 360 360 361 361 361 360 360 359 357
365 359 360 361 368 371 368 371 372 370 377 373 373 371 372 363 370 364 370 369 373 370 371 363 360 364 359 355 356 354 358 358 363 354 354 362 367 350 346 345 346 345 358 347 350 344 347 356 352 353 356 373 367 377 372 365 359 355 354 359 357 361 362 362 363 361 358 355 355 355 356 357 358 359 359 358 358 359 359 359 359 359 359 356 353
359 365 359 359 363 367 369 371 376 374 375 376 373 373 371 368 370 369 364 372 374 372 373 363 370 363 363 362 356 355 355 353 357 358 350 348 349 352 353 353 345 343 368 363 364 347 353 363 357 357 362 368 370 379 385 361 362 360 358 362 354 355 359 360 363 362 358 356 355 355 355 357 358 359 358 356 357 358 358 357 357 357 355 352 350
366 367 372 368 366 368 369 370 374 375 374 372 368 373 374 371 371 375 366 369 372 369 370 361 359 359 361 363 364 360 361 361 356 366 355 354 353 357 363 350 347 348 351 359 354 343 347 354 348 353 364 368 379 384 377 372 363 363 361 369 370 353 356 358 360 361 359 356 354 353 354 355 356 357 356 357 355 356 358 357 354 351 350 350 347
367 368 365 368 369 366 368 367 372 370 372 373 373 369 373 372 373 374 370 367 368 369 371 362 360 363 357 366 370 360 363 359 358 358 360 359 363 368 361 360 353 347 349 348 348 353 349 353 356 360 361 372 375 373 373 363 359 360 361 371 377 359 354 357 357 356 354 352 351 352 352 353 354 354 355 355 353 354 357 356 352 349 348 346 344
361 363 364 371 371 368 365 363 370 371 371 373 370 373 373 372 368 373 370 366 371 372 368 366 370 358 358 361 367 371 370 372 368 363 369 369 366 372 369 363 359 352 349 347 350 349 353 347 350 369 373 372 375 365 370 367 366 363 368 375 369 375 354 351 354 352 351 350 350 351 352 353 352 353 353 352 351 353 355 352 349 347 345 344 341
357 356 363 363 369 368 369 369 365 367 368 366 370 370 373 372 370 374 370 373 370 372 371 366 367 369 366 363 363 364 368 362 363 358 370 372 371 366 367 373 366 357 355 349 350 353 350 350 347 364 368 369 368 368 368 375 361 370 373 374 371 371 352 349 353 352 351 350 350 349 351 352 353 352 349 347 348 350 353 349 348 346 343 340 339
366 371 363 362 365 366 370 365 368 367 367 367 370 370 370 371 367 367 369 371 369 369 372 369 362 367 366 364 369 370 373 365 366 360 369 371 373 377 373 380 374 360 359 358 349 359 358 355 353 351 360 363 356 364 365 368 371 365 369 372 377 364 350 352 350 351 351 350 349 347 345 347 348 345 343 344 346 349 348 348 346 343 341 337 336
356 361 362 360 361 360 359 359 359 360 362 361 362 368 368 367 364 360 361 366 367 367 364 364 357 364 366 364 371 367 369 367 370 368 374 364 367 371 372 375 373 368 366 361 354 353 362 356 355 356 354 357 377 370 371 374 367 360 375 381 370 360 360 362 358 351 350 350 348 346 343 342 341 341 344 346 347 348 348 345 342 341 338 336 334
354 354 358 361 363 362 359 361 358 360 364 363 362 366 366 368 368 369 369 371 364 365 367 365 360 365 370 366 367 368 371 371 371 365 365 368 365 363 365 367 362 364 363 360 355 355 362 366 365 360 357 364 358 371 366 364 368 377 365 375 377 368 365 362 373 350 349 348 346 345 343 342 340 340 343 345 346 347 346 344 341 338 335 333 331
354 351 356 353 358 361 359 361 361 360 365 367 359 360 363 364 363 359 360 367 371 367 368 367 367 362 366 369 366 365 371 366 362 356 357 354 353 353 357 357 358 360 362 359 358 356 353 363 364 368 364 363 355 371 372 374 370 372 368 370 367 364 365 372 371 362 349 347 343 342 341 341 340 340 342 344 345 345 344 343 340 335 334 331 327
353 353 355 353 358 361 360 362 364 361 365 361 360 361 361 363 362 359 356 360 361 362 362 364 363 365 363 364 362 364 357 359 361 357 354 356 354 356 361 362 363 359 364 361 358 356 355 357 365 357 361 370 364 362 365 367 368 371 366 364 362 362 361 360 363 367 349 346 343 340 339 339 340 339 339 340 342 341 340 336 332 330 330 326 325
348 352 354 355 359 361 360 363 364 361 362 361 359 359 364 363 362 363 365 366 361 359 360 360 359 360 359 361 358 358 361 362 365 365 368 365 366 365 362 361 361 359 360 366 370 363 360 356 363 363 363 361 365 366 366 365 363 365 367 366 366 361 362 360 356 353 355 344 343 340 339 337 337 336 335 336 337 334 332 331 327 326 326 325 325
348 349 353 357 359 360 355 357 361 361 360 361 362 358 359 360 362 360 361 363 364 362 360 362 363 362 360 357 358 358 360 358 361 361 359 360 358 357 358 361 362 362 362 360 359 360 359 357 358 364 368 366 367 367 368 362 365 368 372 370 367 363 361 357 354 358 351 341 343 340 338 337 336 335 333 333 332 330 329 328 326 326 325 323 323
348 349 351 351 355 358 356 355 358 360 361 361 362 361 358 358 359 359 362 363 360 360 360 361 360 360 357 359 359 360 358 356 354 355 359 359 362 359 357 359 364 368 368 365 364 365 364 362 360 359 364 361 361 364 369 371 363 358 362 369 370 366 364 361 356 358 361 354 355 349 339 336 335 332 332 332 330 328 328 327 326 325 323 321 318
347 345 348 351 352 357 358 357 356 359 361 361 363 364 362 361 360 358 357 360 360 359 358 356 355 355 355 354 356 356 355 357 353 353 357 361 359 358 362 368 369 363 358 358 363 365 363 360 360 361 361 364 362 358 364 369 371 369 361 361 362 368 368 366 372 369 360 357 354 349 349 347 344 338 327 326 328 326 327 326 326 324 322 319 316
347 345 343 347 351 352 357 357 358 360 362 361 363 365 364 361 360 359 359 357 356 357 356 356 354 352 352 351 348 351 352 354 354 354 355 354 360 358 359 362 361 360 358 360 362 361 359 357 357 357 360 362 366 365 362 357 353 355 359 356 354 361 366 376 366 358 362 365 365 360 350 346 344 337 328 326 328 328 327 327 328 327 326 322 320
346 347 345 343 348 349 352 356 358 357 356 358 358 361 362 362 360 355 355 356 356 355 354 351 352 352 351 349 348 348 353 365 360 357 356 359 351 352 358 361 363 364 365 363 361 361 360 358 356 360 359 358 358 358 356 357 355 353 358 362 358 361 365 361 366 375 370 358 358 357 361 358 356 348 342 338 335 330 329 329 331 332 328 322 322
354 354 352 351 347 350 351 354 356 354 354 354 356 348 352 359 360 355 352 353 354 354 355 353 350 351 348 347 347 362 364 369 363 354 351 352 357 353 356 363 366 363 362 362 362 362 361 359 356 355 354 353 354 354 355 356 358 362 359 361 358 362 364 363 367 366 371 366 357 357 365 364 359 356 350 346 347 341 336 331 331 332 330 324 323
360 370 363 353 348 345 349 351 352 351 351 351 346 337 338 345 358 359 355 354 355 355 354 354 352 348 346 347 348 356 362 364 363 359 351 348 349 350 352 357 366 365 363 362 360 360 359 358 359 357 353 352 352 352 350 349 347 346 347 357 361 361 356 354 350 361 369 359 361 360 361 370 367 363 357 352 354 344 340 338 334 333 327 324 324
364 360 354 357 358 351 346 346 347 350 352 349 335 333 335 336 346 357 356 353 351 353 353 351 351 350 347 344 343 342 343 350 350 359 355 349 345 346 345 346 348 350 355 360 361 362 361 358 358 356 354 352 354 357 354 350 352 355 361 358 355 354 351 350 351 348 370 374 359 356 355 365 371 366 363 362 361 352 346 339 332 332 326 323 324
359 363 359 356 357 356 352 352 350 348 350 341 332 329 332 333 334 348 353 353 349 346 347 350 349 350 351 349 346 346 341 359 360 351 358 355 345 341 344 345 346 345 338 338 344 356 360 360 358 356 357 359 358 359 359 357 366 361 361 359 357 357 356 352 353 354 361 382 369 362 355 357 362 360 357 359 359 359 352 338 332 330 325 323 323
358 355 357 359 358 361 358 356 357 353 350 344 331 326 327 329 331 338 353 349 348 347 347 347 347 349 351 352 352 350 350 350 352 356 364 364 358 354 351 352 354 354 347 338 336 337 344 347 349 351 355 358 355 358 365 368 364 359 358 355 355 353 353 353 358 361 368 374 360 357 353 353 356 356 356 358 367 349 345 334 328 326 324 323 323
357 357 357 354 356 359 358 357 357 355 353 340 329 323 323 324 328 334 352 350 347 346 347 348 351 350 353 355 353 351 352 353 354 355 352 359 368 364 359 356 355 355 356 355 354 350 347 346 346 346 350 355 356 358 360 365 364 364 363 360 361 360 362 364 362 363 361 363 360 357 349 353 359 357 357 358 358 349 341 324 324 324 323 321 322
358 360 359 356 353 354 356 355 356 356 357 337 332 323 320 321 326 341 350 352 350 349 350 351 350 351 351 350 355 357 356 356 358 350 355 357 355 359 365 366 364 363 360 360 347 349 356 353 349 347 346 348 346 353 356 356 357 365 369 366 364 361 357 355 353 357 356 360 361 358 353 353 359 357 357 358 362 355 339 331 323 323 322 321 322
354 355 356 355 357 355 357 357 355 354 355 346 331 321 318 319 324 344 349 351 352 351 352 355 357 358 357 355 353 348 349 354 354 339 339 354 356 354 354 357 360 361 363 367 346 337 338 336 335 335 334 334 334 333 333 336 349 354 359 358 357 359 355 352 353 353 350 349 346 345 354 355 359 360 357 357 357 358 344 337 329 322 320 319 320
354 354 356 358 357 356 354 354 353 354 356 351 331 319 316 317 329 346 348 351 352 354 354 356 357 358 360 365 365 358 354 353 341 334 334 347 356 357 355 354 354 356 359 362 363 359 333 331 331 331 331 332 333 333 334 333 332 341 352 348 351 353 350 349 345 346 346 347 347 351 344 344 354 356 352 356 357 364 355 346 332 325 320 317 317
356 357 358 357 357 357 357 356 354 354 356 350 332 319 316 315 327 347 350 352 351 353 353 354 357 357 358 361 363 358 357 353 336 333 330 345 357 358 357 356 353 351 353 359 362 361 361 354 351 348 345 341 344 347 348 338 337 347 353 355 356 353 348 347 346 345 342 345 349 354 344 346 349 354 352 352 349 357 358 343 335 328 326 326 322
Wind_Speed
5 5 4 3 1 2 2 2 4 2 1 0 2 2 2 3 3 3 2 2 3 4 4 3 3 4 4 3 4 4 4 6 7 7 6 5 5 7 10 10 9 9 8 7 7 7 6 6 6 6 5 5 4 3 3 2 2 1 1 1 1 2 3 3 3 4 4 5 5 4 4 3 3 3 3 2 3 2 2 2 3 0 1 2 2
4 4 3 2 1 1 2 2 3 2 1 2 3 3 3 3 2 2 4 1 4 2 1 5 5 3 3 4 3 6 3 4 6 6 6 5 5 5 10 9 8 8 7 7 7 7 7 6 6 5 6 5 5 4 3 2 1 1 0 1 1 2 3 3 4 4 4 5 4 3 4 4 3 4 4 2 3 3 2 3 4 4 1 3 3
4 5 4 4 3 0 0 2 4 3 2 4 3 4 3 1 2 1 2 2 3 4 2 3 4 5 4 4 5 4 4 4 5 7 7 5 5 4 6 9 9 8 7 7 7 7 8 7 6 6 5 5 4 4 3 3 3 2 2 1 2 2 3 3 4 5 4 4 4 4 4 4 4 4 5 5 4 4 4 4 5 5 2 4 4
5 6 4 6 4 3 3 3 3 7 5 2 3 3 1 1 1 2 2 2 3 4 1 3 2 4 3 4 4 4 3 3 6 8 7 7 6 5 4 5 9 9 9 9 8 8 7 7 6 6 5 4 4 4 4 4 4 3 2 3 3 3 4 4 4 4 5 5 5 4 5 5 5 5 5 5 6 5 5 5 4 5 6 5 5
4 6 7 4 6 7 4 2 2 2 3 3 2 3 2 1 1 1 4 1 3 2 1 2 3 4 4 4 3 3 1 2 4 6 8 8 7 6 5 5 5 8 9 8 10 9 8 8 7 7 6 6 6 5 5 5 5 4 4 4 5 4 5 5 5 5 5 5 5 5 5 6 5 5 6 6 6 6 6 6 6 5 7 6 7
3 4 3 3 3 3 5 2 2 3 3 3 1 1 2 3 2 2 2 0 1 0 2 2 2 2 3 4 4 1 3 2 1 4 6 7 8 7 7 6 5 5 5 10 10 10 9 8 8 8 7 7 7 6 6 6 6 6 6 6 6 6 6 6 6 6 6 6 6 6 6 6 6 6 6 7 7 7 7 7 8 8 8 8 7
3 2 3 3 4 3 3 3 3 3 3 3 3 2 1 1 2 2 3 2 3 2 2 3 1 3 2 3 2 1 2 3 4 2 3 4 5 7 8 7 7 6 5 5 9 11 11 10 9 9 9 8 8 8 8 8 8 8 7 7 7 7 7 7 7 7 6 7 7 6 7 7 7 7 7 7 7 7 8 8 9 9 9 9 9
3 2 2 2 3 3 3 3 3 2 4 2 1 1 1 1 1 1 3 2 2 1 1 2 2 2 3 3 5 3 3 0 2 3 3 3 3 3 4 7 8 6 8 5 5 7 13 12 11 11 10 10 10 9 9 9 9 9 9 8 8 8 8 8 7 7 7 7 7 8 8 8 8 8 8 8 8 8 8 9 9 10 10 10 10
3 2 2 2 3 2 3 4 3 3 3 2 2 2 2 1 1 2 1 2 3 5 2 1 2 2 2 5 4 1 2 3 2 2 3 2 3 4 4 3 4 8 8 6 6 5 10 13 12 12 12 11 11 11 10 11 11 10 10 9 9 9 8 8 8 8 8 7 8 8 8 8 8 9 9 9 9 9 9 9 10 11 11 11 11
4 3 0 1 3 3 3 4 2 3 3 2 1 1 0 2 1 2 1 2 3 1 4 3 5 2 2 3 2 2 4 2 2 3 4 3 4 4 4 6 5 5 6 7 8 6 6 10 13 13 13 12 12 12 12 11 11 11 11 10 10 10 9 8 9 8 9 9 9 9 9 9 10 9 10 10 10 10 10 10 10 11 12 12 13
4 3 0 1 4 3 3 3 3 3 3 2 0 1 0 1 3 1 1 2 2 3 2 2 2 2 3 3 2 2 2 3 3 3 4 5 4 4 5 5 6 4 4 3 8 7 6 6 6 5 7 13 13 13 13 12 12 12 11 11 11 10 10 10 10 10 10 10 10 10 10 10 10 10 10 11 11 10 11 12 12 13 13 13 13
5 3 1 2 3 4 4 3 4 4 2 1 1 2 1 1 2 4 4 3 2 3 3 3 1 3 2 1 1 3 2 3 3 3 2 4 3 4 4 4 5 5 6 6 6 9 8 6 7 7 6 10 14 13 14 13 13 12 12 12 12 11 11 11 11 11 10 11 11 10 11 11 11 11 11 11 11 11 11 12 13 14 14 14 13
5 4 2 2 3 3 4 3 3 3 2 1 2 2 2 2 3 2 2 3 4 2 2 3 1 1 2 2 2 2 3 3 5 6 6 4 4 5 2 4 4 6 3 3 2 7 8 8 7 8 7 5 8 12 13 13 12 11 12 12 12 12 11 11 11 11 11 11 11 9 9 10 11 12 11 11 11 11 12 12 12 13 14 14 14
5 4 3 3 2 3 4 2 2 3 2 3 4 2 3 3 2 1 2 1 2 4 5 3 2 2 3 2 2 2 1 3 6 5 5 4 4 4 5 5 7 5 3 3 2 3 8 6 5 4 8 6 5 6 7 7 8 11 11 11 12 12 12 11 11 11 11 11 10 9 9 10 10 11 11 11 11 12 12 12 13 13 13 14 14
6 4 4 4 3 4 4 3 2 4 3 2 2 1 2 3 3 1 2 1 2 1 3 2 3 2 2 1 1 1 3 4 9 4 5 4 6 4 4 5 5 4 6 6 5 5 5 6 3 3 3 2 5 6 6 6 8 11 11 11 11 11 12 12 12 11 11 11 10 10 10 9 10 11 11 11 11 12 12 13 13 14 14 14 14
7 7 4 3 3 5 4 5 3 3 3 1 1 0 2 1 0 2 2 2 1 1 2 2 2 3 1 1 2 0 1 4 2 3 5 4 4 5 2 5 6 5 2 4 6 3 4 5 4 3 2 3 2 4 7 6 10 11 10 10 11 11 11 12 12 11 11 10 9 9 9 9 10 10 12 12 12 13 13 13 13 13 14 14 14
6 6 5 5 3 3 2 3 4 3 3 4 3 2 1 3 3 2 2 1 1 2 1 2 2 1 0 3 1 2 2 2 1 3 4 5 4 5 2 3 4 4 3 2 3 1 4 5 6 4 5 2 1 2 3 5 6 6 7 9 11 11 11 11 11 11 10 10 9 9 9 9 9 10 11 12 12 12 12 12 13 13 13 13 13
5 6 5 6 4 4 3 3 5 5 2 2 1 3 5 2 3 1 2 4 1 1 2 2 2 2 2 2 4 3 1 3 3 1 3 5 6 2 4 5 7 6 4 3 2 3 1 8 4 6 5 4 4 5 3 3 6 5 5 6 11 11 10 10 9 10 9 9 9 10 10 9 9 10 11 12 12 12 12 12 12 12 12 12 12
7 6 5 6 5 5 6 3 3 6 4 5 5 3 4 3 3 3 1 3 3 2 3 2 4 2 2 1 4 4 1 2 1 2 3 5 2 5 3 0 6 7 6 5 5 6 1 3 3 6 3 4 3 2 4 3 7 5 7 8 11 10 8 8 8 8 9 9 9 9 10 10 10 9 10 10 11 12 10 10 10 10 10 11 10
6 6 5 6 5 4 3 5 2 2 4 3 2 1 0 3 3 2 1 1 2 3 2 3 2 2 1 3 2 3 4 3 2 2 2 2 3 5 1 2 3 2 0 7 6 6 4 3 3 6 5 3 2 3 2 2 4 5 4 8 8 7 7 6 7 7 8 9 9 9 9 9 10 9 8 10 10 10 9 9 9 9 10 10 9
3 7 6 6 5 4 4 3 4 3 3 1 4 2 2 3 3 2 1 1 3 3 2 1 2 2 3 2 3 3 2 2 3 2 2 2 4 0 2 3 2 3 4 3 3 5 5 1 1 1 6 4 2 1 2 2 3 2 4 6 4 5 4 5 5 7 7 7 8 8 8 9 9 9 8 8 8 9 8 8 8 9 9 8 8
5 5 5 5 5 5 4 4 4 2 4 1 2 3 4 2 5 2 2 2 2 2 2 0 1 1 1 1 1 1 2 3 1 3 1 2 3 5 2 4 2 1 2 5 5 3 3 1 3 2 4 4 3 3 3 1 3 4 5 8 6 4 5 5 6 7 7 7 7 7 8 8 8 7 7 7 7 8 8 8 7 7 7 7 7
6 5 7 6 5 5 5 4 4 3 4 3 3 1 2 3 5 6 4 2 3 4 1 2 2 2 2 2 3 4 3 2 2 2 2 1 2 4 3 6 4 1 1 1 1 5 3 3 2 3 1 3 4 3 2 3 3 5 9 8 8 6 6 6 6 7 6 6 5 6 7 7 7 7 7 7 7 7 7 7 7 6 6 6 6
5 6 6 8 5 4 4 3 5 2 4 3 4 4 2 2 1 2 3 3 3 4 1 2 2 3 3 1 3 2 4 4 2 4 2 1 2 4 5 2 2 3 4 4 4 5 2 4 3 5 3 4 4 1 2 2 4 9 6 8 8 7 7 7 7 6 6 5 5 5 5 6 6 6 6 7 7 7 6 6 5 5 5 5 6
5 7 6 7 6 4 6 4 5 5 2 4 3 4 3 2 2 0 2 2 2 2 1 3 1 2 2 3 3 3 1 3 1 1 3 2 1 1 3 5 4 4 1 4 2 3 3 2 6 6 4 2 3 2 2 4 4 3 3 8 9 9 9 8 7 7 6 6 5 4 4 5 5 5 5 5 6 6 6 5 4 5 5 6 7
5 4 5 7 7 6 4 5 3 4 5 4 3 4 4 3 2 2 2 1 3 2 2 4 1 2 1 3 3 1 3 4 1 1 2 3 3 1 2 2 4 5 1 1 1 2 2 1 3 5 5 2 1 1 0 4 3 6 7 3 9 10 10 8 7 7 7 6 5 4 4 4 4 4 4 5 5 5 3 3 4 4 5 6 7
4 4 2 4 6 6 5 5 4 4 3 4 4 3 3 4 2 1 2 3 2 2 2 4 2 5 3 4 2 2 3 3 2 1 2 2 3 2 2 2 3 5 2 2 3 4 1 1 6 4 5 2 2 1 2 2 6 9 8 4 4 12 11 10 8 8 6 6 4 4 4 3 3 3 3 4 4 4 2 2 3 3 5 6 7
3 4 4 3 4 6 5 5 5 5 4 3 3 4 3 3 3 3 3 3 2 2 2 3 5 2 1 2 2 2 2 2 4 4 3 4 2 2 2 2 1 3 4 4 3 2 2 1 3 3 4 4 3 2 4 5 4 9 6 4 1 6 10 10 10 8 7 5 5 4 4 3 2 2 2 2 3 2 2 1 2 3 5 5 7
6 5 5 4 4 5 6 6 5 5 5 4 3 3 3 3 4 3 2 3 3 2 2 2 2 3 1 2 2 1 1 2 1 0 3 2 2 2 1 1 3 1 2 2 3 3 3 7 1 1 2 3 4 6 4 4 5 7 3 1 3 4 9 11 10 9 8 7 5 4 4 4 4 3 2 2 2 2 1 1 1 3 4 5 6
6 7 6 7 4 5 4 4 6 5 5 6 4 4 4 4 3 3 3 2 3 3 2 3 2 2 1 2 1 2 1 1 3 3 5 2 2 3 2 2 4 2 1 1 3 2 4 4 5 0 2 3 5 5 4 1 7 4 1 2 3 1 11 13 11 10 10 8 6 6 6 5 5 4 3 3 3 3 3 3 2 3 3 4 5
4 3 6 7 6 5 4 5 4 6 5 4 5 4 4 3 4 5 4 3 2 2 2 3 3 2 2 3 2 2 1 2 1 2 1 2 2 1 2 1 0 1 1 0 2 2 2 3 3 4 1 3 4 3 2 2 5 4 3 2 2 6 12 11 13 12 11 10 9 7 6 7 6 6 5 4 4 4 4 3 3 2 3 3 4
7 6 4 6 7 8 8 7 7 7 6 6 6 5 5 4 4 5 5 6 4 4 3 3 5 3 3 3 2 1 1 3 2 2 1 4 3 2 2 2 2 2 2 2 3 5 4 5 5 4 5 4 1 1 1 0 3 11 2 1 4 7 7 7 11 14 13 11 10 8 8 8 8 7 6 6 6 6 5 4 3 3 2 2 4
8 8 6 5 7 8 8 7 8 7 6 6 5 5 5 5 4 3 3 4 6 4 3 3 5 3 2 2 2 2 2 2 2 3 2 1 4 5 4 4 4 4 4 4 4 5 3 3 4 4 5 4 4 1 3 3 3 1 4 3 3 4 4 6 3 11 14 13 10 9 9 9 9 8 8 7 7 7 6 5 3 3 2 2 3
8 10 9 9 6 7 8 8 6 6 7 6 7 5 6 5 6 6 5 3 2 3 3 3 3 4 3 2 3 3 3 3 3 5 4 5 5 5 6 6 5 5 6 5 5 4 5 2 4 3 4 4 6 3 1 1 2 2 3 3 4 5 6 3 4 5 14 12 11 10 10 10 10 10 10 9 9 8 7 5 4 3 2 2 2
8 8 10 10 7 7 7 6 7 6 5 7 6 6 6 7 6 6 6 7 5 4 5 4 4 3 4 3 4 3 5 4 5 5 5 4 3 4 2 1 2 3 4 6 4 4 4 4 2 4 3 2 3 4 5 4 4 3 4 5 5 3 4 5 4 5 12 13 12 10 11 12 11 11 11 11 10 10 8 6 5 4 3 3 1
11 8 7 10 8 7 7 6 7 6 6 6 7 7 6 7 7 7 6 4 7 7 6 5 6 5 5 4 5 5 4 4 3 3 2 3 3 3 3 3 3 3 3 2 2 3 3 4 2 2 3 4 3 3 4 5 5 4 3 3 4 5 4 4 4 6 9 13 12 11 12 11 11 11 11 11 11 11 9 8 6 5 4 3 2
11 10 8 7 8 9 10 8 7 8 8 7 7 8 7 7 7 7 7 6 4 5 6 6 6 5 6 5 5 6 5 4 3 3 3 5 5 4 3 3 4 4 3 4 5 4 4 4 4 3 3 3 4 4 4 5 5 4 3 3 3 3 5 4 5 5 8 14 10 9 9 10 11 11 11 11 11 10 9 8 7 6 5 5 4
9 10 10 9 8 9 9 9 8 8 8 8 7 8 9 9 8 8 7 7 7 6 5 6 6 6 5 5 5 5 4 5 5 5 4 5 4 4 4 4 3 2 2 3 4 4 3 3 3 4 3 5 4 4 4 3 4 5 4 3 3 4 5 5 4 2 4 4 4 4 6 8 11 12 11 10 10 10 9 9 8 8 7 7 6
10 10 12 11 8 8 9 9 9 8 8 8 7 8 8 7 7 9 9 8 8 7 7 8 8 7 8 7 6 5 5 4 5 5 4 4 4 4 4 2 2 3 5 5 3 3 4 4 4 5 5 5 6 6 5 4 3 3 4 3 3 3 5 5 2 2 2 5 8 11 11 11 10 9 10 11 10 10 10 10 10 10 8 8 8
11 11 11 12 10 9 8 9 8 7 8 8 7 7 8 8 7 7 8 8 9 8 8 9 9 9 9 9 10 8 9 8 7 6 5 5 3 4 4 4 5 5 5 4 3 3 4 4 5 5 5 4 2 3 3 4 5 6 5 6 7 6 5 1 2 5 3 4 3 6 7 7 7 8 7 8 9 10 11 10 11 10 11 9 9
11 10 10 10 11 11 10 9 9 9 10 10 9 8 8 9 8 8 8 8 9 8 8 10 9 9 9 9 9 10 9 13 16 13 11 9 6 5 4 4 4 4 3 3 5 5 5 5 5 4 4 4 4 5 6 5 6 7 5 4 5 5 2 2 4 2 2 4 5 7 5 8 7 6 6 5 8 9 10 12 9 12 12 11 10
7 7 7 6 7 11 11 10 10 11 10 10 11 15 13 9 9 10 9 8 9 8 8 7 9 10 11 11 10 13 13 14 16 17 17 16 13 9 5 4 5 5 5 5 5 5 4 5 6 5 5 5 5 5 5 5 5 4 5 4 4 4 2 3 2 2 2 3 4 6 4 5 7 7 6 7 7 9 8 7 8 9 11 13 11
5 3 4 7 8 7 11 12 12 12 12 11 16 16 17 16 11 9 9 8 8 9 9 8 8 8 8 8 8 10 10 11 8 13 15 16 15 14 12 10 8 5 4 5 6 6 6 6 5 5 6 6 7 7 7 7 6 6 6 2 2 2 2 3 4 2 3 6 5 4 6 3 4 4 7 8 7 8 10 10 15 14 15 15 12
6 5 7 6 5 7 8 10 13 13 12 14 15 18 19 19 16 11 10 9 8 8 9 10 8 8 9 9 9 10 7 8 8 8 12 16 16 16 17 16 15 13 10 7 5 5 5 6 6 6 5 6 5 4 5 4 4 4 3 3 2 2 3 4 3 5 2 3 5 5 9 5 4 6 7 7 8 8 10 14 17 16 16 15 12
7 4 6 7 7 7 8 8 7 10 12 15 15 17 19 20 20 16 10 10 10 9 9 9 10 8 7 8 9 8 10 12 10 8 8 11 16 19 19 18 16 15 14 13 11 9 5 6 7 7 7 6 6 6 5 4 2 3 2 3 2 3 3 5 6 4 4 2 2 3 8 8 3 4 7 8 7 7 9 12 16 17 16 15 13
4 5 9 7 7 7 8 8 7 9 10 11 18 17 19 20 20 17 12 12 10 9 8 9 10 10 10 9 8 8 8 7 6 5 3 7 8 9 9 8 8 11 13 14 14 14 11 10 9 10 10 7 9 7 6 3 3 4 4 5 4 4 4 6 5 5 3 2 4 4 7 10 7 6 7 7 2 3 4 11 17 17 16 16 14
4 3 2 4 6 8 8 9 9 11 13 14 10 16 18 20 20 16 13 14 11 9 9 8 6 7 7 9 10 11 9 8 8 8 8 5 5 7 8 10 10 9 9 10 10 9 10 9 12 14 13 11 11 10 8 6 5 5 5 6 5 5 5 4 5 5 6 5 7 6 7 10 6 5 7 8 4 4 4 9 16 17 16 16 14
5 4 3 3 5 4 4 6 11 11 13 15 15 14 17 17 21 12 12 13 12 10 10 9 9 8 8 7 5 6 7 8 11 15 11 8 7 6 7 8 8 9 10 11 14 13 12 12 13 14 13 15 15 11 9 8 7 6 6 7 6 6 7 7 8 7 7 5 7 7 6 8 7 6 6 7 3 5 5 5 9 13 15 15 14
7 7 6 5 6 7 8 9 10 13 14 15 16 15 17 19 12 8 11 11 11 11 10 9 8 8 8 8 8 9 9 7 9 12 14 12 8 9 9 9 8 8 8 8 15 20 19 19 19 19 20 20 18 17 15 15 10 8 6 6 8 6 5 6 6 6 7 5 5 7 5 6 6 5 6 5 5 5 6 7 6 10 13 14 13
6 6 6 6 6 5 7 9 11 11 13 14 16 16 17 18 16 9 11 10 10 10 10 9 8 7 8 13 11 9 9 10 13 13 13 10 8 10 10 11 11 10 9 8 7 9 19 20 20 20 20 20 20 17 14 13 13 6 6 10 10 6 8 8 9 8 7 6 7 6 6 7 4 5 6 3 3 2 7 6 7 6 8 7 9
6 6 6 7 8 7 8 11 13 12 11 14 18 16 17 17 16 11 11 10 11 11 11 10 9 8 8 11 15 13 11 11 15 14 13 11 9 10 10 10 12 12 11 6 8 9 6 6 8 9 9 11 11 10 12 17 15 9 8 9 8 8 9 9 9 7 7 6 7 5 6 5 6 5 4 2 3 1 4 5 6 6 5 5 4
Wind_Direction
151 147 146 152 198 141 140 116 84 83 344 327 288 282 248 212 227 261 53 161 141 139 156 124 122 102 116 118 107 123 122 124 133 139 131 145 157 164 161 159 158 157 156 152 152 155 154 158 160 162 161 164 158 158 177 169 194 130 47 27 31 11 29 17 358 15 23 13 34 16 8 0 342 352 352 11 360 358 2 342 344 59 259 320 282
158 113 116 129 154 165 130 122 129 119 114 232 228 257 259 211 224 170 168 223 73 349 251 139 127 107 101 131 134 110 142 135 142 137 143 139 137 159 167 162 162 163 161 159 160 166 166 169 173 170 171 167 170 176 188 201 199 223 173 275 301 354 342 2 338 351 353 358 357 349 340 334 327 316 318 321 314 336 315 330 325 335 248 299 295
150 122 122 155 152 343 65 143 138 170 212 225 223 222 248 119 159 169 55 290 143 185 197 99 118 142 149 141 135 150 147 160 141 143 139 128 132 153 172 170 170 172 168 171 173 176 175 178 177 186 186 180 196 182 191 207 217 221 227 266 294 299 344 314 326 326 333 331 339 322 318 314 310 305 299 307 307 309 311 308 315 318 286 282 272
136 138 128 143 144 154 199 135 171 170 188 211 208 221 166 65 328 33 18 350 55 2 295 162 128 108 156 139 133 139 149 167 179 137 132 137 147 152 154 179 181 181 181 181 185 186 188 183 189 187 193 197 202 210 203 222 231 234 252 262 278 293 281 294 295 308 312 316 313 311 306 308 308 308 313 302 305 303 297 308 291 296 305 294 286
130 124 153 171 154 162 132 234 180 107 173 136 47 11 64 151 49 191 216 167 113 206 323 38 155 167 143 126 124 114 115 100 98 139 143 147 152 148 163 167 180 189 194 193 193 197 198 199 200 198 198 209 213 217 221 231 236 243 252 254 256 262 276 280 291 302 303 307 300 303 299 302 302 302 303 303 294 296 299 296 295 280 285 292 288
117 136 146 138 119 126 127 139 111 101 68 58 119 225 24 335 351 31 15 106 166 340 2 19 71 124 113 97 48 244 172 157 143 114 157 156 152 159 158 163 164 181 193 202 202 204 205 206 210 208 210 214 219 224 228 232 240 241 242 252 260 265 273 283 293 298 299 300 300 296 302 291 288 288 292 293 294 292 294 296 297 294 291 290 287
91 47 117 134 143 106 118 123 90 117 104 60 350 43 93 17 18 339 320 269 117 64 168 194 120 41 357 94 139 340 119 130 126 149 96 111 162 155 157 161 166 179 183 183 210 210 208 210 216 217 219 221 225 227 228 232 238 241 246 257 261 267 277 288 286 288 292 292 290 291 287 292 291 287 286 290 288 288 291 292 294 297 296 291 282
83 65 62 92 103 121 115 105 94 66 89 60 28 47 79 46 348 333 313 2 347 104 169 159 210 115 105 134 138 196 65 29 167 133 115 127 133 117 145 157 168 176 179 180 186 203 209 213 215 218 220 223 228 231 235 237 240 244 252 257 263 268 274 278 285 286 285 284 286 285 284 282 285 285 285 285 286 284 284 284 283 281 283 285 286
122 70 31 125 99 134 129 98 126 109 99 81 39 10 9 133 272 305 344 1 287 201 194 67 45 141 161 112 98 65 99 263 136 105 92 129 120 163 152 153 142 169 174 181 175 184 200 210 214 217 219 223 227 231 237 242 244 247 251 255 259 265 270 272 273 276 277 277 280 279 279 279 281 286 286 284 284 286 283 279 277 275 275 277 278
89 83 76 61 107 92 101 114 121 83 75 84 35 26 311 315 149 314 26 309 305 243 72 286 126 167 116 95 100 147 158 144 39 134 152 178 181 159 174 151 170 180 191 181 173 168 183 205 212 214 220 221 224 229 233 238 243 248 250 253 258 262 264 266 268 269 270 272 272 275 277 277 277 277 277 279 279 279 280 280 280 279 276 274 274
130 103 292 151 135 133 114 123 104 80 76 50 156 254 360 313 320 148 322 227 249 7 40 299 102 112 128 99 92 348 126 136 201 173 187 183 167 170 163 170 176 171 192 174 152 166 176 184 189 206 218 222 223 223 227 230 238 241 243 250 254 255 257 258 259 261 265 267 268 267 270 273 276 275 275 275 275 273 271 271 269 270 271 270 269
133 129 244 51 103 125 120 104 90 100 119 123 190 221 191 17 308 36 339 311 306 32 294 200 360 40 39 138 123 166 241 178 194 172 209 161 169 215 175 173 155 165 177 213 160 164 172 179 183 194 205 211 216 222 220 225 228 230 238 244 247 249 252 255 257 259 262 264 266 268 269 272 273 273 272 273 272 269 266 265 265 265 265 264 263
126 125 160 76 59 116 111 106 98 110 99 190 228 173 172 217 127 138 318 348 308 241 202 38 31 128 316 132 185 220 174 235 228 184 197 165 158 206 181 145 143 183 166 125 164 153 159 185 193 187 197 190 204 218 218 224 222 226 231 236 242 246 250 253 256 259 261 263 267 267 267 266 268 270 271 270 269 269 268 266 265 264 264 263 262
131 137 140 131 179 133 101 94 166 131 140 203 217 209 128 32 40 340 209 163 251 250 76 41 327 177 210 208 148 207 322 228 217 200 161 161 156 156 201 184 161 159 128 127 204 164 159 183 208 144 167 182 187 195 215 219 230 230 227 232 239 244 247 251 255 258 260 262 266 267 267 267 267 267 269 269 269 269 269 268 268 267 265 263 261
135 126 135 169 193 118 137 161 183 171 161 180 136 9 100 188 169 134 323 239 245 245 118 97 287 51 32 21 27 205 253 252 257 181 173 150 173 180 172 147 95 94 164 173 179 222 165 168 162 141 164 157 182 177 197 196 216 215 220 228 234 241 245 248 251 255 258 262 265 268 271 271 272 273 272 271 272 272 272 271 271 270 269 269 268
156 161 151 148 163 154 157 153 170 110 117 82 109 269 156 356 273 164 117 6 353 329 116 147 76 43 351 285 228 106 12 342 339 348 343 150 162 150 180 123 139 161 188 193 179 162 124 144 136 137 159 186 234 161 187 186 211 204 205 216 225 231 238 245 249 254 260 265 270 272 274 274 273 273 277 276 275 275 274 275 274 273 272 272 272
167 150 165 157 143 108 122 136 153 147 157 179 195 213 200 200 185 165 151 125 59 304 154 116 141 16 144 323 24 26 351 316 34 330 337 302 171 85 330 134 135 152 204 101 90 175 202 138 155 175 165 165 189 230 245 169 179 188 198 211 218 226 234 238 245 255 264 272 278 280 280 279 277 276 278 279 279 278 277 277 277 277 278 279 279
157 154 160 136 137 145 154 177 170 146 198 82 248 199 196 240 143 36 212 171 141 94 319 81 108 154 243 96 145 176 220 309 312 308 304 317 356 94 197 189 144 162 207 147 186 182 263 146 180 156 172 189 186 207 231 151 159 178 182 209 217 221 229 235 243 257 268 276 282 283 284 283 281 281 282 283 285 284 283 283 283 284 285 286 287
162 151 175 141 165 163 176 156 161 156 177 171 202 211 135 231 66 98 19 9 78 27 11 10 40 314 22 35 130 301 115 70 323 2 347 326 344 284 135 359 174 176 176 168 201 149 220 84 187 148 207 166 185 215 195 190 159 151 169 184 201 213 225 235 241 254 270 278 282 284 286 287 286 285 285 285 286 287 286 287 288 289 290 292 289
149 141 155 149 165 164 161 158 175 210 166 148 110 157 48 130 138 146 78 100 83 101 14 22 22 317 71 333 341 58 6 287 36 15 262 273 303 327 332 21 27 72 268 162 149 139 128 211 206 152 158 135 186 214 241 144 130 164 173 166 180 193 211 232 244 257 267 278 283 285 288 289 291 291 291 292 295 296 295 294 293 293 295 299 300
174 150 150 163 165 161 169 166 144 198 130 250 139 193 127 117 120 102 167 145 110 174 137 39 341 45 348 350 14 328 249 233 99 304 277 358 306 203 44 346 4 65 344 348 20 120 141 215 37 62 141 155 160 179 214 99 123 70 112 136 159 188 208 230 248 257 268 275 283 288 291 293 296 299 301 302 301 303 303 300 301 304 307 311 315
156 164 146 165 166 165 173 172 148 147 84 145 136 147 158 154 90 44 56 31 322 59 106 216 316 187 257 321 31 286 339 343 232 225 51 41 296 324 271 167 212 10 341 19 355 3 83 116 137 228 140 161 156 170 66 92 94 121 129 153 170 191 207 230 239 253 258 269 280 288 296 299 303 307 311 311 310 307 305 306 312 317 323 328 337
162 164 161 175 164 176 170 161 134 176 158 172 176 107 125 135 144 177 175 163 83 326 299 213 174 245 211 160 198 196 173 245 351 20 336 326 327 315 347 4 16 135 335 54 244 286 155 234 183 112 52 90 71 67 88 125 105 129 152 168 177 193 208 222 232 236 247 257 275 291 300 307 313 317 318 320 315 311 311 317 324 330 340 351 355
170 157 177 171 158 185 135 181 127 133 195 142 81 119 110 89 77 145 146 142 186 181 173 277 244 178 285 189 200 245 161 212 220 153 148 353 27 327 318 326 329 310 168 180 213 231 85 224 130 136 93 102 105 105 232 148 115 150 177 175 177 193 206 226 228 230 238 253 264 279 291 302 311 316 321 322 316 313 319 326 335 346 355 10 9
177 161 181 175 149 174 153 170 159 165 101 105 149 140 112 92 181 181 129 192 157 182 139 282 335 30 218 282 323 340 348 158 318 328 136 125 141 155 318 349 322 285 27 44 330 326 223 109 92 86 94 21 128 170 260 123 142 176 243 182 187 193 208 218 231 233 236 244 255 262 277 289 311 320 324 315 310 314 322 336 349 358 9 24 23
191 178 179 169 152 163 174 149 158 151 143 147 165 149 133 128 224 182 165 130 203 179 219 230 229 224 62 2 313 165 318 350 37 246 214 169 199 218 35 337 305 311 287 114 260 301 314 80 109 88 97 87 35 164 347 124 160 184 232 186 191 199 204 208 224 230 227 238 244 255 263 286 310 322 318 310 310 315 333 351 2 13 24 31 26
196 161 213 149 152 151 166 156 167 152 153 153 173 147 152 154 172 112 137 239 253 179 210 292 197 242 177 183 269 1 348 296 262 198 352 25 11 81 82 14 325 323 330 233 229 226 286 314 126 138 120 169 203 272 218 208 173 189 214 233 200 203 205 204 217 224 225 228 238 246 264 267 298 303 309 304 308 316 342 2 34 31 34 32 24
193 148 188 170 151 154 163 175 158 167 160 179 177 162 170 168 179 170 187 196 241 215 202 221 259 245 286 145 169 247 261 316 13 338 328 53 76 95 150 183 45 327 333 331 352 328 303 272 63 112 157 151 220 226 225 222 175 195 209 246 151 195 200 204 213 218 218 220 227 242 247 257 234 266 276 292 296 295 306 62 78 51 40 30 26
180 179 176 178 169 171 169 180 168 166 172 175 187 146 177 188 184 175 244 229 217 197 231 234 258 278 259 268 155 211 184 256 298 221 99 83 1 15 71 154 119 100 306 330 334 330 323 328 334 314 110 166 203 223 198 208 165 187 202 205 262 174 197 210 212 214 213 203 211 228 235 226 207 200 217 268 259 251 213 155 94 61 44 35 25
195 177 172 171 180 187 171 191 164 188 180 177 184 185 171 186 194 182 214 200 210 200 222 269 267 264 290 259 236 165 245 209 195 241 135 176 181 204 208 178 139 171 187 313 307 317 307 309 324 55 301 229 217 225 227 166 170 218 162 227 247 161 190 211 213 212 208 190 204 215 218 210 193 171 183 221 230 225 191 183 122 79 55 39 28
190 193 168 170 177 176 191 193 178 177 187 188 172 187 185 191 197 195 199 197 209 226 228 226 251 198 217 260 241 199 199 183 310 261 207 109 238 125 240 56 318 139 276 125 284 279 306 312 304 310 299 265 286 59 339 318 185 227 232 224 228 165 190 219 212 207 201 192 200 205 205 205 186 182 180 200 210 204 194 170 134 98 70 51 32
186 198 189 180 178 187 194 200 192 192 183 198 188 182 190 194 211 208 198 187 189 202 228 229 242 202 186 213 216 195 231 266 284 327 259 191 175 203 203 168 153 215 199 231 252 276 296 291 302 312 296 291 25 207 148 8 210 213 252 217 239 227 227 250 241 201 196 193 198 201 203 204 197 185 183 190 196 197 189 174 149 123 101 64 41
185 186 194 200 182 185 192 196 203 186 188 187 193 177 184 194 220 225 263 178 182 197 193 246 255 282 253 207 229 227 259 290 259 246 266 256 182 189 194 183 215 193 200 210 237 265 269 264 291 288 288 313 302 10 272 233 258 178 216 256 281 265 250 255 211 186 189 195 196 197 197 200 200 191 179 186 194 196 194 190 160 143 116 76 57
191 189 185 202 201 186 199 190 204 197 179 184 192 193 181 194 201 213 225 246 213 197 207 199 223 256 270 225 206 233 224 219 230 241 229 222 217 206 188 204 198 203 194 197 220 241 272 284 268 277 301 291 281 256 248 330 322 296 279 271 278 271 256 252 154 198 193 195 191 193 199 203 205 197 185 189 194 196 198 192 177 162 156 114 72
197 199 181 198 193 195 200 195 187 203 187 184 199 196 189 188 196 219 212 191 205 212 209 216 232 234 235 245 248 226 233 224 208 221 244 266 293 307 303 221 195 214 193 195 202 224 255 265 285 293 287 320 337 325 318 296 267 256 256 258 255 286 319 293 256 200 198 197 191 196 201 206 211 204 188 189 195 196 196 190 179 176 165 136 113
192 201 195 190 189 188 202 202 186 195 202 198 191 204 199 187 193 204 242 204 187 200 214 215 212 217 233 235 240 245 240 234 229 238 257 253 241 246 251 255 255 258 285 284 220 225 225 264 262 277 303 297 293 301 298 297 297 289 276 271 266 263 271 289 303 297 192 189 195 198 202 211 213 212 198 192 195 195 193 187 183 182 170 165 152
196 188 202 194 182 187 197 206 197 194 205 206 196 199 205 204 194 202 211 227 220 200 203 206 217 217 212 220 221 220 229 249 256 243 228 229 228 232 243 238 217 215 214 214 233 233 246 258 269 253 266 271 271 269 270 274 267 261 280 279 279 294 292 271 286 286 159 182 192 200 214 219 224 220 209 197 197 194 192 188 187 186 182 175 185
211 189 189 202 193 187 196 199 207 203 203 206 202 205 208 204 201 202 204 207 214 219 218 210 208 217 227 220 225 224 224 218 223 224 231 240 233 226 231 241 257 269 242 225 214 217 228 246 263 287 278 277 280 262 256 255 271 280 272 270 301 298 289 287 271 293 126 165 180 203 223 233 236 232 222 206 203 198 193 194 193 194 191 192 199
213 215 189 192 199 193 191 197 204 207 205 209 207 206 214 219 203 198 209 206 209 208 213 217 219 216 218 222 223 229 239 239 241 243 245 242 231 243 248 250 240 227 242 257 249 234 223 231 240 238 249 245 242 260 260 247 258 249 261 267 279 266 271 265 272 295 291 186 211 204 201 200 205 210 215 216 208 205 200 199 200 200 193 197 205
210 217 218 189 189 198 195 200 207 205 206 209 212 210 210 222 227 210 203 210 212 211 212 210 218 222 214 215 223 216 214 219 225 231 227 234 232 241 222 218 228 237 248 246 254 253 245 239 232 242 237 257 270 282 297 298 291 285 257 246 249 254 248 225 270 286 263 275 243 214 209 196 210 211 208 215 220 213 208 205 208 204 202 203 208
203 212 222 219 187 192 198 198 205 214 212 211 213 211 211 212 223 230 220 214 217 216 211 215 214 219 227 228 224 225 211 206 208 210 216 213 220 224 226 220 224 229 231 225 231 245 261 266 272 269 271 275 275 277 270 258 251 254 253 239 244 234 231 281 274 221 298 294 287 283 176 196 196 204 195 213 216 205 219 211 211 206 203 202 210
194 196 208 228 217 185 190 191 196 210 218 218 209 209 207 210 211 221 222 219 218 219 220 221 223 215 218 227 237 236 234 221 208 208 211 216 213 212 207 207 213 215 221 228 232 231 237 247 248 252 257 247 246 241 245 241 239 243 252 246 250 262 236 251 263 249 267 286 294 299 283 191 207 204 210 217 216 185 210 193 214 199 198 199 206
233 195 205 215 228 226 193 191 199 209 217 222 202 197 202 209 212 216 223 219 212 218 219 220 226 230 234 231 231 235 237 242 229 210 215 217 218 223 224 218 212 212 230 230 228 225 232 240 241 243 243 249 247 250 252 264 258 259 258 268 319 354 325 313 294 284 240 250 254 257 274 250 269 253 202 218 219 183 202 208 207 197 187 192 199
230 227 224 219 227 241 238 215 204 209 217 221 205 194 197 203 208 215 220 226 224 215 218 222 221 226 233 239 240 242 235 226 228 213 212 214 217 220 222 225 227 227 221 220 235 244 231 235 237 235 247 251 260 262 270 282 293 301 296 313 281 290 287 275 266 261 232 224 262 267 274 268 243 252 264 233 217 196 200 202 191 191 181 183 189
325 280 228 220 223 227 241 258 252 218 211 215 208 197 200 201 205 210 218 220 225 228 221 218 222 225 226 227 239 247 251 241 225 222 210 214 216 218 218 223 228 228 231 231 224 226 247 262 254 250 236 244 249 246 240 244 248 264 294 281 264 259 239 252 250 258 263 200 240 251 273 275 241 258 268 261 252 207 200 185 176 177 174 175 184
297 305 312 274 239 224 230 247 260 265 254 217 201 197 202 204 206 206 217 221 226 230 226 221 219 219 219 221 227 235 239 253 262 256 231 209 218 224 228 228 229 237 237 236 237 236 233 238 247 253 249 239 247 249 247 257 263 258 254 253 255 253 258 253 255 256 260 274 257 261 273 274 257 254 253 264 226 122 163 169 167 169 168 174 181
250 269 289 321 318 308 281 253 249 256 255 261 216 202 200 203 208 206 216 222 228 231 235 237 237 232 217 216 220 225 227 230 231 238 251 244 207 213 220 223 225 230 230 229 222 217 224 225 232 241 248 247 246 248 252 245 248 253 246 250 240 235 240 260 275 271 275 255 252 243 250 261 253 237 250 256 202 154 136 166 168 166 170 173 177
268 260 241 239 249 254 265 284 282 283 265 255 246 210 211 209 205 201 213 220 224 230 231 234 239 238 241 239 231 228 226 224 222 222 223 229 241 237 218 214 216 219 225 226 225 220 223 220 226 233 239 242 242 244 244 244 250 245 245 246 242 241 245 251 254 254 253 238 231 224 236 253 250 242 257 263 197 148 146 159 181 173 172 175 170
258 254 252 237 224 221 226 226 226 234 249 250 241 215 204 207 205 218 217 219 222 228 233 232 232 234 237 237 235 243 243 241 232 218 221 218 231 238 244 243 236 234 227 221 213 219 220 222 222 224 232 237 241 241 239 242 238 244 265 273 261 256 243 247 249 250 253 266 265 260 240 242 243 238 257 261 248 162 173 176 169 188 180 172 168
267 273 282 276 274 268 264 261 242 237 241 245 241 216 206 198 190 195 211 216 224 226 235 235 233 237 242 241 239 236 238 240 239 226 219 208 225 233 240 245 247 245 243 242 248 221 222 224 224 226 227 231 237 241 242 240 238 224 214 242 248 248 254 250 258 256 265 257 253 255 276 261 247 223 237 238 261 195 183 164 153 146 168 167 171
271 278 284 283 284 279 268 269 271 266 260 248 239 216 206 198 196 207 204 210 218 224 226 231 230 235 236 239 241 239 235 235 231 226 218 208 226 231 235 242 246 248 247 245 239 246 228 214 244 243 254 254 250 242 242 238 235 224 226 241 251 245 249 250 254 263 270 251 246 232 252 265 256 245 227 246 251 235 59 125 137 148 171 162 170